This is the latest recevied weather packets stored in our database for station/object KD9IXX-13. If no packets are shown the sender has not sent any weather packets the latest 10 day(s).
| Time | Temp. | Humidity | Pressure | Rain* | Wind** | Luminosity | Snow |
|---|---|---|---|---|---|---|---|
| 1777570202 | 14.44° C | 54% | 1017.4 hPa | 0 mm | - | 314 W/m² | - |
| 1777569902 | 13.89° C | 50% | 1017.5 hPa | 0 mm | - | 707 W/m² | - |
| 1777569602 | 13.89° C | 52% | 1017.6 hPa | 0 mm | - | 701 W/m² | - |
| 1777569302 | 13.89° C | 49% | 1017.7 hPa | 0 mm | - | 673 W/m² | - |
| 1777569002 | 13.89° C | 50% | 1017.8 hPa | 0 mm | - | 780 W/m² | - |
| 1777568702 | 13.33° C | 50% | 1017.9 hPa | 0 mm | - | 558 W/m² | - |
| 1777568402 | 13.33° C | 51% | 1017.9 hPa | 0 mm | - | 781 W/m² | - |
| 1777568102 | 12.78° C | 53% | 1018 hPa | 0 mm | - | 329 W/m² | - |
| 1777567802 | 12.78° C | 52% | 1018.1 hPa | 0 mm | - | 276 W/m² | - |
| 1777567502 | 13.33° C | 52% | 1018 hPa | 0 mm | - | 283 W/m² | - |
| 1777567203 | 13.33° C | 52% | 1018.1 hPa | 0 mm | - | 371 W/m² | - |
| 1777566902 | 13.33° C | 51% | 1018.2 hPa | 0 mm | - | 380 W/m² | - |
| 1777566603 | 12.22° C | 52% | 1018 hPa | 0 mm | - | 286 W/m² | - |
| 1777566302 | 12.78° C | 54% | 1018.2 hPa | 0 mm | - | 291 W/m² | - |
| 1777566002 | 12.78° C | 53% | 1018.1 hPa | 0 mm | - | 419 W/m² | - |
| 1777565702 | 13.33° C | 52% | 1018.4 hPa | 0 mm | - | 416 W/m² | - |
| 1777565402 | 13.33° C | 52% | 1018.4 hPa | 0 mm | - | 601 W/m² | - |
| 1777565102 | 12.78° C | 52% | 1018.5 hPa | 0 mm | - | 442 W/m² | - |
| 1777564802 | 13.33° C | 52% | 1018.3 hPa | 0 mm | - | 670 W/m² | - |
| 1777564502 | 13.33° C | 49% | 1018.2 hPa | 0 mm | - | 702 W/m² | - |
| 1777564202 | 12.78° C | 53% | 1018.5 hPa | 0 mm | - | 693 W/m² | - |
| 1777563902 | 12.22° C | 56% | 1018.5 hPa | 0 mm | - | 691 W/m² | - |
| 1777563602 | 13.33° C | 50% | 1018.3 hPa | 0 mm | - | 695 W/m² | - |
| 1777563302 | 12.78° C | 53% | 1018.5 hPa | 0 mm | - | 694 W/m² | - |
| 1777563002 | 12.22° C | 57% | 1018.7 hPa | 0 mm | - | 704 W/m² | - |
* Rain latest hour (hover to see other rain measurements)
** Current wind speed in m/s (hover to see current wind gust speed)